Regional Weather Roundup
Issued by NWS

Home | Current Version | Previous Version | Text Only | Print | Product List | Glossary On
Versions: 1 2 3 4 5 6 7 8 9 10 11 12 13 14 15 16 17 18 19 20 21 22 23 24 25 26 27 28 29 30 31 32 33 34 35 36 37 38 39 40 41 42 43 44 45 46 47 48 49 50
000
ASUS46 KSEW 010810
RWRWA

WASHINGTON REGIONAL WEATHER ROUNDUP
NATIONAL WEATHER SERVICE SEATTLE WA
100 AM PDT TUE SEP 01 2015

NOTE:"FAIR" INDICATES FEW OR NO CLOUDS BELOW 12,000 FEET WITH NO
SIGNIFICANT WEATHER AND/OR OBSTRUCTIONS TO VISIBILITY.

WAZ505-507>509-010900-
SEATTLE, TACOMA, EVERETT, AND VICINITY

CITY           SKY/WX    TMP DP  RH WIND       PRES   REMARKS
EVERETT        PTCLDY    61  52  72 S26G33    29.87F
BOEING FIELD   CLOUDY    66  53  63 S9        29.90F
RENTON           N/A    N/A N/A N/A MISG      29.90F
SEATAC AIRPORT CLOUDY    63  53  70 S12G20    29.92S
JBLM-MCCHORD   CLOUDY    62  54  74 S7        29.92S
PUYALLUP       CLOUDY    63  55  77 CALM      29.93S
BREMERTON      CLOUDY    61  55  82 S12G18    29.92S
JBLM-FT LEWIS  CLOUDY    63  55  74 S10       29.91S
TACOMA NARROWS CLOUDY    63  53  70 S12       29.92S
$$

WAZ001-503-506-510-514-515-010900-
NORTH INTERIOR

CITY           SKY/WX    TMP DP  RH WIND       PRES   REMARKS
BELLINGHAM       N/A     62  56  80 S18G24      N/A
FRIDAY HARBOR  LGT RAIN  57  55  93 CALM      29.83R
EASTSOUND      LGT RAIN  59  57  94 SW7       29.81R
PORT ANGELES   CLOUDY    60  55  83 S3        29.82F
PORT TOWNSEND  CLOUDY    61  57  88 VRB7G16   29.81S
NAS WHIDBEY    MOCLDY    62  56  80 SE20G31   29.85F
ARLINGTON      MOCLDY    63  52  67 SE15G21   29.86F
BURLINGTON     CLOUDY    63  57  82 SE10G18   29.84S
$$

WAZ020-022-039-040-504-511-512-010900-
SOUTHWEST INTERIOR

CITY           SKY/WX    TMP DP  RH WIND       PRES   REMARKS
SHELTON        CLOUDY    62  56  80 S8        29.87F
OLYMPIA        CLOUDY    62  54  74 S8        29.91F
CHEHALIS       CLOUDY    64  55  72 S7        29.93S
KELSO          NOT AVBL
VANCOUVER      CLOUDY    65  52  62 VRB3      29.96S
SCAPPOOSE, OR  CLOUDY    60  53  77 SE7       29.94F
PORTLAND, OR   CLOUDY    65  53  65 S5        29.96F
$$

WAZ021-516-517-010900-
WASHINGTON COAST

CITY           SKY/WX    TMP DP  RH WIND       PRES   REMARKS
FORKS          CLOUDY    61  60  97 SW7G17    29.85R
HOQUIAM        CLOUDY    62  59  90 S13       29.90F
ASTORIA, OR    CLOUDY    63  59  87 S8        29.93S
$$

WAZ019-023-024-040-518-519-010900-
CASCADE MOUNTAINS AND COLUMBIA GORGE

CITY           SKY/WX    TMP DP  RH WIND       PRES   REMARKS
TROUTDALE, OR  CLOUDY    66  51  58 SW5       29.96S
THE DALLES, OR MOCLDY    67  50  54 NW13      29.91S
$$

WAZ026-027-041>044-520-521-010900-
EAST SLOPES

CITY           SKY/WX    TMP DP  RH WIND       PRES   REMARKS
OMAK           MOCLDY    59  43  55 S9        29.78F
WENATCHEE      CLEAR     60  45  57 N7        29.84S
ELLENSBURG     PTCLDY    59  46  62 NW12      29.89S
YAKIMA         MOCLDY    59  43  55 CALM      29.88S
$$

WAZ028-034-035-010900-
COLUMBIA BASIN

CITY           SKY/WX    TMP DP  RH WIND       PRES   REMARKS
EPHRATA        PTCLDY    63  44  50 W9        29.82F
MOSES LAKE     MOCLDY    63  46  54 SW9       29.84S
PASCO          MOCLDY    65  48  54 SW8       29.88S
HERMISTON, OR  MOCLDY    62  48  60 S10       29.90S
$$

WAZ036>038-010900-
NORTHEAST WASHINGTON

CITY           SKY/WX    TMP DP  RH WIND       PRES   REMARKS
SPOKANE GEIGER MOCLDY    59  45  59 S9        29.87S
SPOKANE FELTS  MOCLDY    62  45  53 VRB3      29.87S
FAIRCHILD AFB  MOCLDY    56  45  68 S6        29.87S
COEURDALENE,ID MOCLDY    61  46  59 S9        29.87S
DEER PARK      CLOUDY    56  46  69 S6        29.86S
$$

WAZ029>033-010900-
SOUTHEAST WASHINGTON

CITY           SKY/WX    TMP DP  RH WIND       PRES   REMARKS
PULLMAN        MOCLDY    59  45  59 W3        29.94S
LEWISTON, ID   MOCLDY    62  44  51 W3        29.88S
WALLA WALLA    MOCLDY    66  46  48 S15       29.92S
PENDLETON, OR  PTCLDY    59  46  62 S8        29.93F
$$


USA.gov is the U.S. government's official web portal to all federal, state and local government web resources and services.